CZ-6A DEB, 54499

Orbit data source: Space-Track

CZ-6A DEB, 54499 is space debris in SSO originally from a launch on Fri, 11 Nov 2022 UTC launched from the Taiyaun Space Center, China (TSC). Debris objects in space refer to the collection of defunct objects orbiting the Earth. Examples of debris include non-operational satellites, rocket bodies, and fragments generated from explosions, collisions, or faulty payload assembly.

Loading next visibility...
Identifier
54499, 2022-151JB
Orbit
SSO
Country
Flag of CNCN / PRC
Related business
Manufacturer
SAST
Mission
Spacecraft
Bus & Motor
Unknown
Mass
Unknown
Launch date (UTC)
2022-11-11 (4 years ago)
Launch vehicle
Unknown
Launch site
Taiyaun Space Center, China (TSC)
Object type
Payload
Rocket body
Debris
Shape & HBR
Unknown shape, 1.1 m
Radar Cross Section
Large (>1 m²)

Expand to show TLE details & history
Last TLE update: 9 hours ago

TLE from 9 hours ago
0 CZ-6A DEB
1 54499U 22151JB  26236.43640959  .00000274  00000-0  80546-4 0  9991
2 54499  98.5755 289.9634 0134998  87.8447 273.8196 14.46567460199272
Epoch: 2026-08-24T10:28Z
TLE epoch observation values (Epoch: 2026-08-24T10:28:25.788Z)
Latitude
-0.00004°
Longitude
160.13782°
Altitude
734.731 km
Speed
7.49 km/s
True Right ascension
19h 19m 51s
True Declination
0° 00' 00"
Sunlit
Object was in full shadow at epoch
Visualization orbit readout
Latitude
Unknown
Longitude
Unknown
Altitude
Unknown
Speed
Unknown
Apparent Right ascension
Unknown
Apparent Declination
Unknown
Sunlit
N/A
Visualization observer readout
Local Sidereal Time
10:16:35
Azimuth
Unknown
Elevation
Unknown
Doppler factor
Unknown
Orbital elements
Apogee altitude
830.01 km
Perigee altitude
637.985 km
Semi-major axis
7,112.135 km
Eccentricity
0.0135
Inclination
98.5755°
RAAN
289.9634°
Arg. of periapsis
87.8447°
True anomaly
272.27452°
Mean anomaly
273.8196°
Eccentric anomaly
273.04721°
Mean motion
3.61862 °/min
Orbital period
99.49 mins
BSTAR
0.000080546
Loading maneuver chart data...
Computing Atmospheric mass density...

Documentation

Showing up to 5 results
|